GW7661 Weather Reports


Display with metric or nautical units.
time (UTC)temp
F
wind
direction
speed
MPH
gust
MPH
rain 1hr
in
rain 24hr
in
rain mn
in
humidity
%
barometer
mb
20260906233103 93 127 2.0 5.0 0.00 0.05 0.05 48 1014.0
20260906231604 93 233 1.0 9.0 0.00 0.05 0.05 48 1014.0
20260906230105 91 221 3.0 8.0 0.00 0.05 0.05 48 1014.0
20260906224600 91 185 2.0 7.0 0.00 0.05 0.05 53 1014.1
20260906223059 90 158 3.0 6.0 0.00 0.05 0.05 54 1014.4
20260906221606 91 117 2.0 8.0 0.00 0.05 0.05 51 1014.5
20260906220104 93 250 3.0 8.0 0.00 0.05 0.05 50 1014.5
20260906214557 94 15 1.0 4.0 0.00 0.05 0.05 47 1014.6
20260906213104 94 235 2.0 5.0 0.00 0.05 0.05 48 1014.9
20260906211606 92 101 1.0 5.0 0.00 0.05 0.05 50 1015.1
20260906210059 89 134 1.0 5.0 0.00 0.05 0.05 53 1015.3
20260906204605 88 116 1.0 4.0 0.00 0.05 0.05 58 1015.4
20260906203113 88 46 2.0 4.0 0.00 0.05 0.05 59 1015.6
20260906201605 86 359 0.0 1.0 0.00 0.05 0.05 64 1015.7
20260906194621 81 55 0.0 2.0 0.00 0.05 0.05 74 1016.1
20260906193110 80 0 0.0 2.0 0.00 0.05 0.05 75 1016.1
20260906191608 80 295 1.0 3.0 0.03 0.05 0.05 78 1016.1
20260906184602 78 237 0.0 2.0 0.05 0.05 0.05 87 1016.7
20260906183110 77 214 0.0 2.0 0.05 0.05 0.05 85 1016.9
20260906181636 80 240 1.0 6.0 0.02 0.02 0.02 77 1016.9
20260906180110 85 53 2.0 6.0 0.00 0.00 0.00 60 1016.7
20260906174600 88 56 2.0 5.0 0.00 0.00 0.00 55 1017.0
20260906173056 89 157 1.0 4.0 0.00 0.00 0.00 50 1017.0
20260906171612 89 323 1.0 3.0 0.00 0.00 0.00 50 1017.2
20260906170115 88 127 2.0 7.0 0.00 0.00 0.00 51 1017.3
20260906164603 88 237 1.0 4.0 0.00 0.00 0.00 54 1017.4
20260906163109 88 250 1.0 5.0 0.00 0.00 0.00 54 1017.4
20260906161602 88 97 1.0 5.0 0.00 0.00 0.00 54 1017.3
20260906160107 86 259 1.0 4.0 0.00 0.00 0.00 58 1017.2
20260906154558 86 206 1.0 4.0 0.00 0.00 0.00 59 1017.1
20260906153105 85 213 1.0 4.0 0.00 0.00 0.00 59 1017.1
20260906151607 85 238 2.0 5.0 0.00 0.00 0.00 60 1016.9
20260906150108 84 269 3.0 6.0 0.00 0.00 0.00 62 1016.8
20260906144614 83 211 4.0 6.0 0.00 0.00 0.00 62 1016.7
20260906143112 81 201 2.0 5.0 0.00 0.00 0.00 68 1016.7
20260906141604 79 110 0.0 1.0 0.00 0.00 0.00 73 1016.7
20260906140100 77 0 0.0 2.0 0.00 0.00 0.00 77 1016.6
20260906134605 76 0 0.0 1.0 0.00 0.00 0.00 77 1016.5
20260906133117 76 0 0.0 0.0 0.00 0.00 0.00 78 1016.3
20260906131602 75 0 0.0 1.0 0.00 0.00 0.00 80 1016.3
20260906130108 74 0 0.0 0.0 0.00 0.00 0.00 81 1015.8
20260906124604 73 0 0.0 1.0 0.00 0.00 0.00 81 1015.7
20260906123108 73 280 0.0 1.0 0.00 0.00 0.00 81 1015.4
20260906121606 73 0 0.0 1.0 0.00 0.00 0.00 81 1015.2
20260906120112 74 0 0.0 1.0 0.00 0.00 0.00 79 1015.1
20260906114603 75 349 0.0 3.0 0.00 0.00 0.00 78 1015.0
20260906113102 75 231 1.0 5.0 0.00 0.00 0.00 78 1014.7
20260906111600 75 243 0.0 2.0 0.00 0.00 0.00 78 1014.7
20260906110104 75 222 0.0 5.0 0.00 0.00 0.00 78 1014.6
20260906104608 75 238 0.0 2.0 0.00 0.00 0.00 77 1014.4
20260906103100 75 0 1.0 4.0 0.00 0.00 0.00 77 1014.2
20260906101557 75 219 1.0 5.0 0.00 0.00 0.00 76 1014.1
20260906100105 75 209 1.0 5.0 0.00 0.00 0.00 76 1014.1
20260906094615 76 200 3.0 7.0 0.00 0.00 0.00 75 1014.3
20260906093131 76 203 3.0 8.0 0.00 0.00 0.00 75 1014.4
20260906091612 76 241 3.0 9.0 0.00 0.00 0.00 75 1014.3
20260906090104 76 195 3.0 7.0 0.00 0.00 0.00 74 1014.4
20260906084605 76 245 3.0 7.0 0.00 0.00 0.00 73 1014.2
20260906083105 76 217 4.0 9.0 0.00 0.00 0.00 73 1014.4
20260906081609 76 175 2.0 5.0 0.00 0.00 0.00 74 1014.6
20260906080105 77 192 4.0 9.0 0.00 0.00 0.00 74 1014.7
20260906074601 77 204 2.0 5.0 0.00 0.00 0.00 74 1015.0
20260906073058 77 238 1.0 4.0 0.00 0.00 0.00 74 1014.9
20260906071557 77 208 1.0 4.0 0.00 0.00 0.00 73 1015.1
20260906070107 78 211 1.0 5.0 0.00 0.00 0.00 72 1015.1
20260906064600 78 214 1.0 6.0 0.00 0.00 0.00 71 1015.4
20260906063058 79 205 2.0 7.0 0.00 0.00 0.00 71 1015.5
20260906061558 79 200 2.0 9.0 0.00 0.00 0.00 70 1015.4
20260906060105 79 214 2.0 8.0 0.00 0.00 0.00 69 1015.5
20260906054610 80 214 1.0 6.0 0.00 0.00 0.00 69 1015.5
20260906053057 80 266 2.0 7.0 0.00 0.00 0.00 69 1015.6
20260906051605 80 231 2.0 7.0 0.00 0.00 0.00 68 1015.4
20260906050111 81 140 1.0 5.0 0.00 0.00 0.00 66 1015.7
20260906044603 81 178 1.0 5.0 0.00 0.00 0.00 64 1015.7
20260906043105 81 184 1.0 6.0 0.00 0.00 0.00 63 1015.7
20260906041604 81 263 1.0 4.0 0.00 0.00 0.00 63 1015.6
20260906040107 81 15 0.0 3.0 0.00 0.00 0.00 62 1015.5
20260906034604 81 211 0.0 3.0 0.00 0.00 0.00 60 1015.3
20260906033056 82 261 0.0 3.0 0.00 0.00 0.00 57 1015.3
20260906031600 82 131 1.0 6.0 0.00 0.00 0.00 57 1015.3
20260906030104 80 0 0.0 0.0 0.00 0.00 0.00 55 1014.9
20260906024603 80 0 0.0 0.0 0.00 0.00 0.00 55 1014.5
20260906023104 81 0 0.0 0.0 0.00 0.00 0.00 55 1014.1
20260906021602 81 0 0.0 0.0 0.00 0.00 0.00 54 1013.9
20260906020106 82 0 0.0 0.0 0.00 0.00 0.00 53 1013.8
20260906014649 83 0 0.0 0.0 0.00 0.00 0.00 52 1013.6
20260906013108 85 0 0.0 0.0 0.00 0.00 0.00 50 1013.6
20260906011606 86 0 0.0 0.0 0.00 0.00 0.00 48 1013.5
20260906010057 88 0 0.0 1.0 0.00 0.00 0.00 46 1013.5
20260906004612 89 0 0.0 3.0 0.00 0.00 0.00 45 1013.3
20260906003115 91 100 1.0 7.0 0.00 0.00 0.00 43 1013.2
20260906001605 92 115 2.0 5.0 0.00 0.00 0.00 42 1013.2
20260906000105 93 272 1.0 6.0 0.00 0.00 0.00 42 1013.1
20260905234611 95 94 2.0 9.0 0.00 0.00 0.00 39 1013.1